ATLAS 5 CENTAUR DEB, 44670

Orbit data source: Space-Track

ATLAS 5 CENTAUR DEB, 44670 is space debris in HEO originally from a launch on Wed, 17 Oct 2018 UTC launched from the Air Force Eastern Test Range (AFETR). Debris objects in space refer to the collection of defunct objects orbiting the Earth. Examples of debris include non-operational satellites, rocket bodies, and fragments generated from explosions, collisions, or faulty payload assembly.

Loading next visibility...
ATLAS 5 CENTAUR DEB details
Identifier
44670, 2018-079AG
Orbit
HEO
Last TLE update1 day ago
Origin
Flag of USULA (US)
ManufacturerULA Decatur
MissionSpacecraft
Bus & MotorUnknown
MassUnknown
Launch date (UTC)
2018-10-17 (6 years ago)
Launch vehicleUnknown
Launch site
Air Force Eastern Test Range (AFETR)
Object type
Payload
Rocket body
Debris
Shape & HBRUnknown
Radar Cross SectionLarge (>1 m²)

Expand to show TLE details & history

TLE from 1 day ago
0 ATLAS 5 CENTAUR DEB
1 44670U 18079AG  25024.58755218 -.00000168  00000-0  00000-0 0  9996
2 44670  12.6702  78.6664 4653856 230.7206  77.7976  1.82913220 37758
Epoch: 2025-01-24T14:06Z
Definitive object data (Epoch: 2025-01-24T14:06:04.508Z)
Latitude
Longitude103.04796°
Altitude25,006.985 km
Speed3.36 km/s
True Right ascension05h 14m 51s
True Declination0° 00' 00"
Sunlit
Object was in daylight at TLE epoch
Visualization TLE readout
Latitude7.17124°
Longitude136.8833°
Altitude33,640.275 km
Speed2.41 km/s
Apparent Right ascension07h 33m 31s
Apparent Declination1° 10' 55"
Sunlit
Object is in daylight
Visualization observer readout
Local Sidereal Time20:00:26
Azimuth10.175° NNE
Elevation-48.443°
Doppler factor1
Orbital elements
Apogee altitude35,011.287 km
Perigee altitude8,721.904 km
Semi-major axis28,244.732 km
Eccentricity0.4653856
Inclination12.6702°
RAAN78.6664°
Arg. of periapsis230.7206°
True anomaly129.23799°
Mean anomaly77.7976°
Eccentric anomaly103.70324°
Mean motion0.45723 °/min
BSTARUnknown
Orbital period787.35 mins
Loading maneuver chart data...

ATLAS 5 CENTAUR DEB Visibility forecast

Observer location: undefined°, undefined

Span
Click to sort rows by Start time (UTC) header in descending order
Start Az.
Max El. time (UTC)
Max El. Az.
Max El.
End time (UTC)
End Az.
692 mins2025-01-26 03:56:37.681Z229.559° WSW2025-01-26 08:19:37.681Z224.228° SW34.789°2025-01-26 15:28:37.681Z138.586° SSE
|